User: anonymous
Location: Niverville
(49.6028°N, 97.0419°W)
Time: 06:32:31
(UTC-05:00)
Language:

Cosmos 2237 Rocket - Orbit

View from above orbital plane
View from above orbital plane
View from above satellite
View from above satellite

Ground track
Ground track

The orbit data is extracted from the following two-line orbital elements,

1 22566U 93016B   14259.88923543 -.00000175  00000-0 -65850-4 0  1471
2 22566 071.0105 014.8646 0011803 230.4876 129.5204 14.14851801109218
Epoch (UTC): 16 September 2014 21:20:29
Eccentricity: 0.0011803
inclination: 71.0105°
perigee height: 834 km
apogee height: 851 km
right ascension of ascending node: 14.8646°
argument of perigee: 230.4876°
revolutions per day: 14.14851801
mean anomaly at epoch: 129.5204°
orbit number at epoch: 10921

The dashed part of the orbit path shows where the satellite is in the earth's shadow,  

DLR